Theta_e
330 330 331 332 332 332 332 332 333 333 333 333 333 332 331 331 330 328 327 328 328 329 329 328 327 327 328 329 329 328 328 327 326 325 325 326 326 326 327 327 329 331 332 333 333 333 333 333 333 332 332 333 334 333 332 333 333 334 333 334 334 334 335
332 332 333 334 334 334 333 333 333 333 333 334 333 333 332 331 331 330 329 328 327 326 327 326 327 327 327 328 329 328 327 326 326 325 325 326 326 325 326 329 330 331 332 332 332 332 333 333 332 332 332 333 333 332 331 331 332 333 332 332 333 334 335
332 332 333 333 334 334 333 332 332 332 332 333 333 333 333 332 332 331 331 330 328 327 327 326 326 327 327 328 328 328 327 325 324 324 325 326 326 325 326 329 331 331 332 332 332 331 333 333 332 332 333 334 334 333 332 330 330 330 330 330 332 333 334
331 331 331 331 332 332 332 331 332 332 332 333 333 333 333 333 332 332 332 331 330 329 328 326 325 326 326 327 328 328 327 325 324 324 324 326 328 326 326 328 329 330 332 332 332 331 332 333 333 333 334 335 335 334 333 331 330 330 330 331 332 333 334
331 331 331 331 332 332 332 332 332 333 332 332 332 333 333 333 333 332 331 332 331 330 329 328 326 325 325 325 326 327 327 326 325 325 324 326 328 328 328 328 328 329 331 331 331 332 332 333 333 334 334 335 334 334 333 332 331 331 331 331 332 333 335
330 330 330 331 332 332 332 332 333 333 332 332 331 331 332 332 333 332 332 332 332 331 330 329 328 327 326 326 325 326 327 327 327 327 325 325 327 328 329 329 327 326 329 331 332 332 333 333 334 334 334 335 334 334 333 333 333 333 333 333 333 334 335
329 330 330 330 331 331 332 332 333 333 332 332 331 330 331 332 333 333 333 333 332 332 331 331 329 328 328 328 327 328 328 328 328 328 326 324 325 326 327 329 328 325 327 330 332 332 333 334 334 334 334 335 335 334 333 333 334 334 334 334 335 334 335
328 329 329 329 329 330 331 331 331 332 331 331 330 330 330 331 332 333 333 333 332 332 332 332 331 330 329 329 329 329 328 328 328 328 327 326 326 326 326 328 328 327 327 329 331 332 332 333 334 333 333 334 335 335 333 333 334 335 335 335 334 334 335
327 328 328 327 327 328 330 330 330 330 330 330 330 330 330 331 331 332 332 332 332 333 332 332 332 331 330 330 329 329 328 327 327 328 328 328 329 328 327 326 327 328 327 328 330 331 331 332 333 332 332 333 335 335 334 333 334 334 335 335 334 333 334
328 328 328 327 326 327 328 329 329 329 330 329 329 330 330 330 331 331 332 332 332 332 332 332 332 331 331 331 330 329 328 327 327 327 328 329 330 331 330 328 328 328 328 328 329 331 331 331 330 330 331 332 333 335 336 335 334 335 336 335 334 333 333
328 328 327 326 326 326 327 327 328 328 328 328 328 329 329 330 330 330 331 331 331 331 331 331 331 331 331 330 330 330 329 329 329 328 328 328 328 329 330 331 329 328 327 327 327 329 331 331 329 329 330 330 331 333 335 336 336 335 334 334 334 334 333
326 326 326 325 324 324 325 325 325 326 326 327 327 328 328 329 329 329 329 329 330 330 330 331 331 331 331 330 330 330 330 330 330 330 329 328 328 327 328 330 331 330 328 327 326 326 329 331 330 329 329 330 330 331 332 334 335 333 331 332 334 333 333
324 324 324 324 324 324 324 325 325 325 326 326 327 327 327 328 328 329 329 329 330 330 330 331 331 331 331 331 330 330 330 330 330 330 330 330 329 328 327 328 329 329 329 328 327 325 327 330 331 330 329 330 330 329 329 332 332 330 329 331 332 333 333
324 323 323 324 324 324 325 325 325 325 325 325 325 326 326 327 328 329 329 330 330 330 331 331 331 331 331 331 331 331 331 330 330 330 330 329 329 328 328 328 327 327 327 328 328 326 326 328 330 331 330 330 330 328 328 330 331 330 329 328 328 331 333
321 321 322 324 325 325 325 325 324 324 324 324 324 324 324 326 328 329 329 330 330 330 330 330 330 330 331 331 331 331 331 331 331 331 330 329 328 328 328 328 327 326 326 326 328 328 326 326 329 331 331 330 329 328 328 329 331 332 331 328 325 326 331
319 320 322 324 325 324 324 325 324 323 323 322 323 323 323 324 325 327 328 328 329 329 329 329 330 330 330 330 330 330 330 330 331 331 331 330 329 329 329 328 328 328 327 326 327 328 327 324 326 329 331 331 331 331 330 329 330 332 333 332 328 325 327
318 319 321 322 322 322 323 323 323 323 322 321 321 321 321 322 322 324 325 326 327 328 328 329 329 330 330 330 330 329 329 329 330 331 331 331 330 330 330 330 329 329 329 327 327 329 328 325 324 326 329 331 332 332 331 328 327 329 332 333 330 327 326
319 319 320 319 320 320 320 321 321 321 321 321 321 321 321 322 322 323 323 324 325 326 328 328 329 329 330 329 329 329 329 329 329 330 330 330 330 331 330 330 330 330 330 328 326 328 329 328 325 325 327 330 332 332 332 330 328 328 330 330 329 328 327
319 319 319 318 319 318 318 318 318 319 319 320 321 321 322 322 322 322 323 323 323 324 325 326 327 328 329 329 329 329 329 329 329 330 330 330 330 330 330 330 330 330 331 330 327 328 330 329 327 326 328 330 331 332 332 332 331 330 330 330 328 328 328
319 319 318 318 318 318 317 317 317 318 318 320 321 322 322 322 322 322 322 322 322 322 322 322 323 324 325 326 326 327 328 329 329 330 330 331 330 330 330 330 330 331 331 331 329 328 330 330 328 327 327 329 331 332 333 333 332 332 331 330 328 327 327
319 318 318 318 318 317 317 317 318 319 319 320 321 322 322 321 321 321 321 321 320 320 319 319 320 321 321 322 322 323 324 325 326 328 329 330 330 330 330 331 330 330 331 331 331 330 330 331 330 328 327 327 329 331 333 332 332 333 332 328 326 326 325
318 318 318 317 317 317 317 318 319 320 320 320 320 320 319 319 319 319 319 319 319 318 317 317 318 319 320 320 320 319 319 320 321 322 323 324 325 326 328 329 330 330 330 330 331 332 332 332 331 330 328 325 326 328 331 331 331 333 332 327 324 325 325
318 317 317 317 316 316 317 318 318 318 319 318 318 318 317 317 316 316 316 316 316 316 316 316 317 318 318 318 319 318 318 318 318 318 319 319 320 320 322 324 327 330 330 330 331 332 332 332 332 332 330 327 325 327 329 330 331 332 331 327 324 324 326
317 317 317 316 317 317 317 317 318 318 318 317 316 316 316 315 315 314 314 313 313 314 314 315 316 317 317 317 318 318 318 318 318 318 318 318 318 318 318 319 321 325 328 330 330 330 331 332 332 332 332 330 327 328 329 330 331 332 331 329 324 324 327
317 317 316 316 316 317 317 317 317 317 316 315 315 314 314 314 313 313 312 312 312 313 314 315 315 316 316 317 317 317 317 317 317 318 318 317 317 317 317 318 318 319 322 325 327 329 330 331 331 331 332 331 329 329 329 329 330 330 331 329 325 325 328
316 316 316 316 316 316 316 316 316 316 315 314 314 313 313 313 312 312 312 311 311 313 314 314 314 315 315 315 316 317 317 317 317 317 317 316 316 316 317 318 318 318 319 321 324 326 328 330 331 331 331 332 331 329 328 328 328 329 330 329 326 326 328
316 316 316 316 316 316 315 315 315 314 314 313 313 313 312 312 312 311 311 311 312 313 314 313 312 313 314 314 315 316 317 318 319 318 318 318 317 318 319 319 320 319 319 320 321 324 326 328 329 329 330 331 331 331 329 328 328 329 331 329 325 326 327
315 315 315 315 315 315 315 315 314 314 313 313 313 312 312 311 311 310 310 310 312 313 314 312 311 312 313 312 313 314 315 317 318 319 320 321 321 321 322 323 322 321 320 320 320 321 323 326 328 328 329 330 330 331 330 329 330 331 330 327 326 327 328
315 315 315 315 315 315 314 314 313 313 312 312 312 312 311 311 310 309 309 310 311 313 314 313 311 311 311 311 311 312 313 315 317 318 320 321 321 322 323 324 324 323 321 320 320 320 323 327 329 328 328 329 329 331 331 330 331 331 329 326 328 330 329
315 314 314 314 314 314 314 313 313 312 312 312 312 311 311 310 309 309 310 312 312 313 313 312 310 310 310 309 309 310 311 313 315 318 319 320 320 321 321 322 324 324 323 321 322 325 327 329 329 328 328 328 329 331 331 331 331 330 329 328 330 331 329
314 314 314 313 313 313 313 313 313 313 312 312 312 311 310 310 309 309 310 312 313 313 312 310 309 309 309 309 309 309 309 311 313 316 318 319 319 320 320 320 322 324 325 325 326 327 328 328 328 328 328 328 329 330 331 331 331 330 329 329 330 330 329
314 313 313 313 313 313 313 313 313 312 312 312 312 311 310 310 309 309 309 310 311 311 311 309 308 308 308 308 308 308 308 309 311 313 315 317 319 320 320 321 322 322 324 326 327 327 327 328 328 329 328 328 329 330 331 332 331 330 330 329 328 329 328
313 313 313 312 312 313 313 313 313 312 312 312 311 311 310 309 309 309 309 310 310 311 311 309 307 307 308 308 308 308 308 309 310 310 312 315 318 319 320 321 322 323 323 325 326 326 326 327 327 327 326 327 329 330 331 332 330 329 328 327 327 328 327
313 312 312 312 312 313 313 313 313 312 312 311 311 310 310 309 309 309 310 311 311 311 311 310 308 307 307 307 308 307 308 309 309 310 312 315 316 318 320 321 321 323 324 325 325 325 325 325 325 324 323 324 327 329 329 330 329 328 327 326 325 324 323
313 312 313 313 313 313 312 312 312 311 311 311 310 309 309 308 308 309 310 311 311 311 311 311 309 308 307 307 307 308 308 309 309 310 313 314 314 315 317 319 320 321 322 323 323 323 323 323 323 322 322 324 326 327 326 326 326 325 324 323 321 320 318
312 312 313 313 313 313 312 312 311 311 310 309 309 309 308 307 308 310 311 311 311 311 311 310 309 308 307 307 307 308 308 309 309 310 311 312 312 312 314 317 319 319 320 321 321 321 320 321 321 321 322 324 325 325 323 321 320 319 318 318 317 316 314
313 312 312 312 312 312 311 311 310 309 309 309 309 309 308 307 308 310 311 311 311 310 309 308 308 308 308 308 308 308 309 309 309 309 309 310 311 311 313 315 317 318 319 319 319 317 316 316 317 318 319 320 322 322 320 317 316 317 316 314 313 313 312
Wind_Speed
17 15 13 14 14 15 16 17 18 19 21 23 24 24 22 21 20 19 20 20 19 19 20 21 21 21 20 20 20 20 19 19 19 17 16 17 19 17 15 15 15 13 12 10 8 6 6 8 9 9 9 9 10 11 12 13 14 14 14 15 15 15 15
16 14 13 13 14 15 16 16 17 17 19 21 23 24 24 23 22 21 21 22 21 20 20 20 20 21 21 21 21 20 20 20 19 18 18 18 20 18 16 16 15 15 13 11 10 8 8 10 11 11 9 8 8 9 10 11 14 15 15 15 15 15 14
16 15 15 15 16 16 16 16 15 15 16 17 19 21 23 24 24 23 24 24 23 22 21 21 21 21 21 21 21 20 20 19 19 19 18 19 20 19 17 17 16 16 15 14 13 11 10 11 11 11 10 8 7 7 7 9 12 14 15 15 15 14 13
15 15 16 16 16 16 17 16 15 14 14 15 16 18 19 21 23 24 24 25 25 24 23 22 22 22 21 21 21 20 20 19 19 19 18 19 20 20 20 19 18 17 17 16 15 13 12 11 10 10 10 9 8 6 6 8 10 12 13 14 14 13 11
16 16 17 17 17 17 17 16 15 15 15 15 15 16 17 18 20 23 24 25 25 25 23 22 22 22 21 21 21 21 20 20 20 20 20 20 21 21 21 21 20 19 19 18 15 15 13 10 9 10 10 10 9 6 5 7 9 11 12 12 12 11 10
17 17 17 18 18 18 18 17 17 16 16 16 16 16 16 16 18 20 22 24 25 25 25 23 22 21 21 21 22 22 22 21 21 21 21 21 22 21 20 20 20 20 21 19 17 16 13 10 10 10 9 10 10 8 7 8 9 10 11 11 11 11 10
17 17 18 19 19 19 19 19 19 18 18 17 17 16 16 16 17 18 20 23 24 25 25 25 24 23 22 21 21 21 21 21 21 22 21 21 22 22 20 19 20 20 21 20 18 17 15 12 12 12 10 10 11 10 9 10 10 10 10 11 11 11 10
17 17 19 19 19 19 20 20 20 20 20 19 19 18 17 17 17 18 20 21 22 23 23 24 25 25 25 24 23 21 20 19 20 22 22 22 23 23 21 20 20 20 21 21 20 19 17 15 14 14 12 12 12 12 11 11 11 10 10 10 10 10 10
15 17 18 18 18 18 19 20 21 21 21 20 19 19 19 18 18 18 19 19 21 21 20 21 23 24 26 26 26 25 23 22 21 22 23 24 24 24 23 22 21 21 21 21 22 21 19 18 17 17 15 14 13 13 12 12 12 11 9 9 9 9 9
15 16 18 17 17 16 17 18 19 20 20 20 19 20 20 20 20 19 19 18 20 20 18 18 20 22 24 26 27 27 26 25 24 23 23 24 25 25 24 23 23 22 20 21 23 23 20 19 19 18 17 16 14 14 14 14 12 11 9 8 8 9 10
18 18 18 17 16 16 16 17 18 18 18 18 19 19 20 21 21 21 20 19 19 20 19 18 18 19 21 24 26 27 27 26 27 26 25 25 25 25 26 26 25 24 22 21 23 24 23 22 20 19 18 17 16 15 16 16 14 13 12 9 8 10 11
19 19 18 17 16 15 16 17 17 17 17 17 18 18 19 20 20 21 21 20 20 20 20 19 19 19 20 22 23 25 26 26 28 28 27 28 27 26 27 28 28 26 24 23 23 24 26 25 23 20 19 18 18 17 18 18 17 16 14 12 10 10 11
18 18 17 17 16 15 15 15 16 15 15 15 16 17 18 18 19 20 20 20 20 19 19 19 20 20 20 21 22 22 23 25 27 28 28 29 29 29 29 28 28 28 26 25 24 24 26 27 25 23 22 21 20 20 20 19 19 18 15 15 13 12 13
18 17 17 17 16 15 15 15 15 15 15 15 15 15 16 17 18 18 19 19 19 18 18 18 19 19 20 20 20 20 21 22 25 27 28 29 30 30 30 30 30 29 28 28 27 25 25 27 27 26 25 24 23 23 21 20 20 18 17 17 17 16 15
15 15 16 16 16 15 15 15 15 15 15 15 15 15 15 15 16 17 17 18 19 19 19 19 19 19 19 20 20 20 20 21 22 24 26 28 29 29 30 31 31 31 30 29 29 28 26 26 28 28 26 25 24 23 22 21 20 19 18 19 20 19 17
12 13 14 15 15 15 15 14 14 15 16 16 16 16 16 16 16 16 17 18 19 20 20 20 20 21 21 21 21 22 22 21 22 22 24 26 27 28 29 31 31 31 31 30 31 30 27 26 28 29 27 25 24 23 22 22 21 20 19 19 20 21 20
11 11 12 13 14 14 15 15 15 15 15 15 16 17 17 17 17 17 17 18 18 19 20 21 22 23 23 23 23 23 23 23 23 23 23 24 25 26 28 30 30 30 30 31 31 31 29 28 28 29 28 26 25 24 23 23 23 21 20 20 20 21 22
11 11 12 12 13 14 14 15 16 16 16 16 16 17 17 17 17 17 17 17 18 19 19 21 22 23 24 24 24 24 24 24 24 25 25 24 24 25 27 28 29 28 28 30 31 31 30 29 28 28 29 27 26 25 23 24 24 22 22 22 21 20 20
13 13 14 13 13 14 15 17 17 18 18 17 16 17 17 18 18 17 17 18 18 19 20 21 22 24 25 25 26 26 26 25 25 24 25 25 25 25 26 27 27 27 27 29 30 30 30 30 29 28 29 28 27 25 24 25 25 24 23 24 24 22 20
16 15 14 13 14 15 16 17 18 19 19 18 16 17 17 17 18 18 18 18 19 20 21 22 23 24 25 26 27 27 27 27 26 25 24 24 24 25 25 26 26 26 27 28 29 29 29 30 29 29 29 29 28 27 26 27 27 26 25 24 25 24 22
17 16 15 15 16 16 16 17 17 17 17 17 16 16 16 16 16 17 18 19 20 20 21 22 22 23 25 26 27 27 26 26 27 27 26 25 25 25 25 25 26 27 28 29 29 30 30 30 30 30 30 30 30 30 29 29 29 28 27 26 25 25 23
18 18 18 18 17 16 15 14 14 15 15 15 15 16 15 15 15 16 18 19 21 21 22 22 22 22 23 24 25 25 25 25 26 28 28 28 28 27 26 26 26 26 28 29 30 31 32 32 32 33 33 33 33 33 32 30 29 28 29 28 26 25 24
21 20 19 18 16 14 13 12 13 14 14 13 14 15 15 16 17 18 19 21 22 23 22 21 21 21 22 23 24 25 25 25 26 28 29 30 30 29 29 29 28 27 27 28 30 32 33 34 35 34 34 34 34 34 33 31 29 29 30 29 27 26 26
21 20 18 17 15 14 13 13 14 14 14 13 13 14 16 18 20 21 22 23 24 24 23 21 20 20 20 21 22 23 25 26 27 29 30 32 32 32 31 31 30 29 28 28 28 30 32 33 35 35 35 35 35 35 34 32 30 30 31 30 28 28 28
20 19 18 16 14 14 13 14 14 14 13 13 14 15 17 20 23 24 24 24 24 22 21 20 20 20 19 19 20 21 22 25 27 29 31 33 34 33 32 31 31 31 31 31 29 29 30 31 32 34 35 36 36 36 35 34 34 33 32 31 30 30 30
20 19 18 15 14 14 14 15 15 15 15 16 17 18 20 22 24 25 25 24 22 19 18 18 18 17 16 16 16 17 18 21 23 26 29 32 33 33 32 32 32 32 33 33 32 31 30 30 30 30 32 35 38 38 37 37 36 35 34 34 33 32 32
20 19 17 16 15 15 15 16 16 16 17 18 19 20 22 23 24 24 23 22 20 18 16 16 15 14 14 13 13 14 15 17 19 21 24 28 30 32 31 32 34 34 34 33 33 33 32 32 31 31 32 34 37 39 40 38 37 37 36 34 33 33 32
21 20 18 17 16 16 16 17 17 17 17 18 19 21 22 23 24 24 22 20 19 18 17 17 15 13 13 12 11 12 14 15 17 18 20 23 25 27 28 29 31 33 34 34 33 33 33 32 31 31 32 34 35 38 40 38 38 38 36 32 31 30 28
22 21 20 18 18 18 18 18 18 18 18 19 20 21 21 22 24 24 21 19 19 18 17 18 17 14 13 12 11 12 13 14 16 16 17 19 22 24 25 26 27 29 30 31 32 31 31 30 29 31 33 33 34 37 40 39 38 38 35 32 31 28 24
24 23 21 19 19 19 20 20 20 20 19 20 20 21 20 21 23 23 21 19 18 17 17 18 18 15 13 12 11 11 12 13 14 15 16 17 19 21 22 22 24 25 27 28 29 29 28 27 28 29 31 33 34 37 39 39 38 38 36 34 31 27 24
24 23 21 19 19 19 20 21 21 21 21 21 21 21 21 21 22 23 22 20 18 17 16 18 18 16 14 13 12 11 11 12 12 13 14 16 18 19 18 18 19 22 25 26 26 24 24 25 27 30 32 33 36 40 41 40 40 39 37 33 30 27 26
24 21 19 18 18 19 20 21 21 21 21 21 21 21 22 22 23 23 23 22 20 17 15 17 18 17 14 13 12 11 10 11 10 11 12 14 16 18 18 17 16 17 19 21 20 20 22 25 28 31 34 37 39 42 42 41 41 40 35 30 28 28 27
22 19 18 17 17 19 20 21 21 20 20 20 20 21 22 22 22 23 23 21 20 18 16 16 18 18 16 14 12 11 9 9 8 9 10 12 14 15 16 18 17 16 17 17 17 18 21 24 27 31 38 44 46 46 44 40 39 38 33 30 30 31 32
19 18 17 17 18 20 21 20 19 19 19 20 19 21 22 22 23 23 22 20 19 19 18 17 18 19 17 15 13 11 9 8 8 7 7 9 11 12 13 15 16 17 18 18 17 18 19 21 24 28 34 39 39 39 39 37 36 35 33 33 34 33 32
18 18 18 19 21 21 20 19 18 18 19 19 19 20 22 22 22 22 21 20 20 20 20 19 19 19 18 17 15 13 10 8 7 6 5 6 8 10 10 11 12 13 15 16 16 16 17 19 22 24 27 27 24 23 27 32 33 32 31 30 29 26 23
18 18 19 21 21 20 18 17 16 16 17 18 19 21 21 20 21 21 20 21 21 22 22 20 18 17 17 17 16 14 11 7 5 4 3 4 6 7 7 7 7 7 10 14 15 13 12 15 17 19 23 24 22 23 27 29 28 26 24 23 22 20 19
18 18 20 21 20 18 16 15 14 14 15 18 19 19 18 18 20 21 21 21 23 24 22 19 15 15 16 16 16 14 12 8 5 3 3 3 4 4 5 5 5 3 5 11 11 8 8 9 11 13 17 19 21 24 25 24 22 21 20 19 19 19 19
Wind_Direction
233 238 242 245 244 243 243 243 244 244 244 244 245 249 251 251 249 243 238 236 235 235 236 238 240 241 240 238 235 233 233 234 235 238 242 238 234 231 227 222 220 218 216 217 217 223 258 276 277 276 282 283 275 271 268 268 269 272 275 276 275 276 280
231 231 232 233 233 235 238 239 240 240 241 242 242 245 247 247 247 245 243 243 242 240 239 240 242 243 242 240 238 235 234 236 238 240 244 242 236 232 228 223 219 218 219 223 224 221 238 261 270 275 284 283 272 272 269 262 260 261 264 267 269 269 269
230 231 231 230 231 236 239 240 241 241 240 241 242 243 244 245 245 245 245 246 247 246 244 243 244 244 243 241 240 239 238 239 241 242 244 244 238 231 228 226 223 221 220 223 227 226 228 243 257 270 285 284 266 266 271 263 257 256 260 265 268 267 266
237 239 240 241 243 245 246 246 246 246 244 241 241 242 243 243 244 244 245 246 247 248 247 245 245 245 245 244 243 242 241 241 243 243 242 242 236 230 228 227 226 225 224 225 228 226 222 230 247 263 277 277 262 262 275 269 263 261 262 265 268 268 270
243 243 243 244 246 248 250 252 250 249 247 244 243 244 245 244 244 243 243 244 245 247 248 247 246 246 247 247 246 244 243 244 244 244 242 240 237 233 230 228 227 224 225 227 226 222 220 227 243 256 267 266 259 264 279 273 268 267 265 265 268 267 268
243 244 245 244 244 247 249 251 251 251 250 249 248 249 251 252 250 247 245 245 247 249 250 250 249 249 249 250 249 246 245 246 246 246 245 242 241 240 237 234 231 227 225 224 221 218 217 225 238 245 255 260 260 268 276 273 269 268 267 269 271 266 264
241 243 245 246 245 246 247 248 250 251 251 252 251 251 254 254 251 249 247 245 247 250 251 251 251 251 251 251 251 249 248 248 249 249 248 244 243 244 242 238 234 231 227 222 219 219 217 223 235 239 245 258 266 270 271 269 267 267 268 272 273 267 264
241 244 247 250 249 246 246 248 250 252 254 255 255 255 255 253 248 246 246 246 245 247 249 251 252 252 252 251 250 250 250 250 251 251 248 246 244 243 243 241 238 235 230 225 223 224 224 225 233 240 244 252 264 268 265 263 264 267 268 270 271 264 256
240 245 250 254 253 248 245 245 248 251 254 255 257 258 259 258 254 249 248 248 246 244 247 252 252 251 252 253 252 252 251 251 253 253 250 247 246 245 244 244 242 239 234 230 228 229 230 229 232 240 242 245 256 264 262 260 263 269 270 271 272 264 250
238 245 252 254 253 250 247 247 248 250 253 255 255 257 258 259 258 255 252 251 249 246 244 248 253 253 252 253 254 254 253 254 255 255 253 250 250 250 248 246 244 240 235 232 232 231 231 231 231 234 237 241 248 255 259 261 265 272 273 272 274 265 249
240 247 253 253 252 251 251 251 251 251 253 255 255 256 258 259 260 259 257 255 253 251 247 245 250 256 256 254 254 255 254 255 254 254 252 251 252 253 252 248 246 241 236 234 235 235 233 232 231 228 231 238 244 248 253 257 260 262 259 252 252 251 244
245 250 252 252 253 253 252 253 253 252 252 252 253 254 256 260 262 263 263 261 256 253 252 249 247 250 253 254 254 255 254 253 254 254 253 252 253 255 254 251 248 245 240 237 238 238 235 234 233 231 229 235 243 247 249 252 255 258 255 245 235 234 234
249 252 252 252 253 251 250 251 253 255 254 253 253 252 253 256 260 262 263 262 258 256 253 251 248 246 247 249 251 252 252 252 253 254 255 255 256 255 253 250 249 248 246 243 241 240 238 235 234 234 233 235 242 247 249 252 255 255 255 250 243 238 236
254 253 251 250 251 249 248 247 248 251 253 254 255 256 255 254 257 260 260 258 258 256 253 251 250 247 246 247 248 249 249 250 251 254 254 255 255 254 252 249 249 250 251 249 245 241 240 238 236 236 236 238 241 246 250 253 256 253 250 252 252 247 242
252 251 246 244 246 247 248 248 248 248 249 252 255 257 257 255 255 257 258 257 256 255 255 254 254 252 250 250 250 250 249 248 249 251 252 252 253 253 252 250 249 249 251 252 248 243 240 239 238 237 238 239 241 246 250 254 258 255 249 249 252 251 248
244 245 242 241 244 246 248 249 249 250 251 252 254 256 257 257 258 259 259 260 259 258 258 258 258 259 258 255 254 254 253 252 252 253 253 253 252 252 252 252 251 250 249 250 247 243 239 238 238 238 240 241 243 246 250 253 255 255 251 249 251 254 252
234 236 235 237 241 243 246 248 250 253 254 254 255 258 259 260 261 262 263 264 265 264 262 261 261 262 262 262 260 259 258 257 257 257 256 255 253 252 252 252 251 250 248 247 245 242 240 239 239 239 240 241 242 245 249 252 252 254 254 249 248 254 255
225 231 235 240 246 250 254 256 258 260 259 257 256 257 260 262 263 263 264 265 267 267 266 264 263 263 264 264 264 263 263 262 261 261 260 258 255 252 252 253 253 251 247 245 243 242 240 240 240 241 240 239 240 243 247 250 252 255 255 252 246 247 252
225 237 246 251 257 262 265 267 269 270 267 261 257 256 259 262 264 265 266 267 268 268 268 266 265 265 265 266 266 266 266 267 267 267 266 264 260 256 254 253 251 249 247 244 243 242 241 241 243 242 239 238 238 240 244 248 252 254 255 252 247 243 246
227 239 247 251 256 262 268 271 271 271 268 261 257 258 260 261 263 265 267 269 270 270 271 270 268 266 266 266 267 267 268 268 268 268 269 269 266 264 260 255 250 246 246 246 245 243 242 242 245 245 243 242 240 240 242 246 250 251 250 246 243 242 244
227 236 243 249 256 261 266 267 264 263 261 258 256 257 259 262 265 267 270 272 275 277 278 276 272 268 266 266 267 267 267 267 267 267 268 269 270 269 266 260 253 247 246 247 247 246 245 245 246 246 246 246 245 243 242 244 247 248 245 239 238 241 241
227 236 243 250 256 260 260 257 255 254 252 253 255 258 262 268 272 276 278 279 281 285 285 282 277 271 267 265 265 266 266 267 268 269 269 269 269 268 268 265 260 253 249 247 247 248 247 248 248 248 247 247 246 245 244 243 244 244 239 235 236 238 235
231 237 243 249 254 256 252 246 246 248 248 251 257 263 272 281 286 289 290 288 288 289 290 285 277 270 265 263 262 264 265 267 269 271 272 272 271 270 268 266 264 261 256 252 250 248 247 248 248 247 248 248 245 245 244 242 242 240 237 237 237 233 229
232 237 242 247 249 247 243 243 245 248 250 255 261 270 281 289 293 295 294 294 291 288 287 283 273 265 263 263 263 264 265 267 269 271 273 274 274 273 270 267 264 262 260 258 255 252 249 248 248 247 247 248 247 246 244 242 241 241 238 238 238 232 229
231 235 239 244 244 239 237 242 247 248 250 256 265 276 285 289 293 294 295 295 291 284 280 275 268 263 262 265 267 267 267 267 268 269 271 273 273 273 270 267 264 260 258 258 257 256 251 248 248 248 246 247 247 246 245 244 244 243 239 237 237 234 231
232 232 235 239 237 233 233 237 242 245 251 262 271 281 287 289 291 291 291 291 288 281 273 266 262 262 264 267 271 273 272 270 268 267 267 268 269 269 268 265 262 259 256 254 253 254 252 249 247 246 245 245 245 246 246 246 247 245 241 240 240 235 229
228 227 228 227 226 228 232 235 240 246 255 265 274 282 287 289 290 289 288 286 284 280 273 264 258 260 265 269 274 278 279 276 273 269 265 263 264 265 266 264 262 259 255 252 251 250 251 250 248 247 245 243 242 243 243 244 245 243 239 239 240 235 230
222 222 221 221 226 232 234 237 242 249 256 266 276 282 285 288 290 288 284 282 281 280 273 261 253 254 261 267 275 283 286 285 282 277 269 264 264 266 269 268 265 262 257 252 250 250 250 250 248 247 246 243 241 241 241 240 240 237 231 231 233 231 230
218 219 221 225 231 234 236 241 246 252 260 269 277 281 283 288 292 289 282 280 281 280 269 256 248 249 257 266 276 285 291 294 293 291 285 275 266 265 268 270 268 265 259 253 251 252 253 252 249 247 246 245 243 240 237 235 234 230 227 226 224 222 224
217 219 226 232 236 238 240 244 249 255 263 270 276 281 285 290 293 289 281 278 283 284 271 252 244 247 255 264 274 284 291 297 299 301 302 295 281 268 265 266 266 262 258 255 254 254 255 255 253 250 247 244 241 238 234 230 227 223 222 220 214 211 216
220 224 232 237 241 244 244 247 252 259 266 273 278 283 287 290 290 285 279 278 283 288 273 252 243 245 252 261 271 281 289 297 303 307 310 309 300 286 274 269 266 259 254 252 253 255 258 257 256 255 251 242 235 231 228 224 218 215 213 208 203 205 208
224 229 237 241 245 248 249 251 257 263 269 275 279 283 286 288 285 281 278 278 282 286 276 260 250 246 247 256 264 273 285 295 305 314 316 313 308 299 291 285 280 270 258 252 253 260 262 260 259 253 244 238 231 225 220 216 210 203 199 197 199 203 204
226 232 240 245 249 250 251 253 259 265 269 273 277 282 285 285 282 279 277 277 281 284 281 274 265 253 246 249 256 264 278 290 298 311 316 314 311 302 293 288 286 279 270 265 263 262 259 259 259 247 230 223 220 212 205 201 199 196 198 203 205 203 201
230 238 244 247 248 248 250 254 259 263 266 271 277 282 283 282 278 274 271 271 275 277 279 281 276 263 250 247 250 256 267 282 293 302 310 317 317 307 293 288 284 277 273 269 262 258 251 243 241 232 215 205 203 198 191 191 195 198 202 204 199 194 192
235 240 242 242 243 245 248 253 257 261 267 273 277 279 279 278 272 265 262 263 268 272 277 282 280 267 255 249 250 253 259 271 287 296 304 320 323 316 306 295 284 275 269 257 243 241 237 225 220 215 205 200 206 209 202 196 194 193 192 189 187 186 187
235 239 239 239 240 243 248 254 258 266 273 275 274 274 275 273 266 259 258 261 265 270 276 279 275 266 259 255 252 251 252 256 269 283 294 307 312 315 312 293 278 274 257 237 224 214 211 213 214 211 207 206 211 212 203 191 183 181 179 177 178 182 184
235 238 238 237 238 244 252 258 267 277 277 271 268 269 270 266 259 255 256 262 268 273 274 271 266 264 265 261 255 251 245 239 241 251 267 281 285 295 300 282 272 278 232 209 194 167 159 182 196 201 202 201 197 196 193 186 178 179 179 174 174 179 181